カタログに戻る

STARLINK-32427

運用中通信VLEO
NORAD 61848·PAYLOAD·🇺🇸 United States

打ち上げ Nov 7, 2024 から Cape Canaveral Space Force Station

Loading…

次のパス (今後24時間)

TLE

最新Source: CelesTrak SupGP

元期: Sep 14, 2026, 20:56 UTC

1 61848C 24202D   26257.87270833  .00030697  00000+0  11122-2 0  2577
2 61848  42.9992 238.4870 0001434 264.6398 287.5098 15.27553071    12

AllMySatでSTARLINK-32427をリアルタイム追跡

Download on the App Store